This is the latest recevied weather packets stored in our database for station/object CT2IRJ-11. If no packets are shown the sender has not sent any weather packets the latest 10 day(s).
| Time | Temp. | Humidity | Pressure | Rain* | Wind** | Luminosity | Snow |
|---|---|---|---|---|---|---|---|
| 1777707510 | 16.67° C | 77% | 1017.3 hPa | 0 mm | - | 139 W/m² | - |
| 1777707210 | 15.56° C | 81% | 1017.3 hPa | 0 mm | - | 121 W/m² | - |
| 1777706910 | 16.11° C | 81% | 1016.9 hPa | 0 mm | - | 52 W/m² | - |
| 1777706609 | 15.56° C | 81% | 1016.9 hPa | 0 mm | - | 93 W/m² | - |
| 1777706310 | 16.11° C | 80% | 1017.3 hPa | 0 mm | - | 89 W/m² | - |
| 1777706009 | 15.56° C | 82% | 1017.3 hPa | 0 mm | - | 60 W/m² | - |
| 1777705710 | 15.56° C | 83% | 1017.3 hPa | 0 mm | - | 85 W/m² | - |
| 1777705409 | 15° C | 85% | 1017.3 hPa | 0 mm | - | 69 W/m² | - |
| 1777705109 | 15° C | 85% | 1017.3 hPa | 0 mm | - | 55 W/m² | - |
| 1777704809 | 14.44° C | 86% | 1017.3 hPa | 0 mm | - | 59 W/m² | - |
| 1777704509 | 14.44° C | 88% | 1017.3 hPa | 0 mm | - | 69 W/m² | - |
| 1777704209 | 13.89° C | 89% | 1017.3 hPa | 0 mm | - | 50 W/m² | - |
| 1777703909 | 13.33° C | 89% | 1017.3 hPa | 0 mm | - | 49 W/m² | - |
| 1777703609 | 13.33° C | 89% | 1017.3 hPa | 0 mm | - | 39 W/m² | - |
| 1777703309 | 12.78° C | 90% | 1017.3 hPa | 0 mm | - | 40 W/m² | - |
| 1777703009 | 12.78° C | 90% | 1017.3 hPa | 0 mm | - | 39 W/m² | - |
| 1777702710 | 12.78° C | 90% | 1017.3 hPa | 0 mm | - | 30 W/m² | - |
| 1777702409 | 12.78° C | 90% | 1017.6 hPa | 0 mm | - | 26 W/m² | - |
| 1777702110 | 12.78° C | 90% | 1017.3 hPa | 0 mm | - | 23 W/m² | - |
| 1777701810 | 12.22° C | 90% | 1017.3 hPa | 0 mm | - | 15 W/m² | - |
| 1777701510 | 12.22° C | 90% | 1017.3 hPa | 0 mm | - | 10 W/m² | - |
| 1777701209 | 12.22° C | 90% | 1016.9 hPa | 0 mm | - | 7 W/m² | - |
| 1777700909 | 12.22° C | 90% | 1016.9 hPa | 0 mm | - | 5 W/m² | - |
| 1777700609 | 12.78° C | 90% | 1016.9 hPa | 0 mm | - | 3 W/m² | - |
| 1777700310 | 12.78° C | 90% | 1016.9 hPa | 0 mm | - | 0 W/m² | - |
* Rain latest hour (hover to see other rain measurements)
** Current wind speed in m/s (hover to see current wind gust speed)